This is the latest recevied weather packets stored in our database for station/object N9BID. If no packets are shown the sender has not sent any weather packets the latest 10 day(s).
| Time | Temp. | Humidity | Pressure | Rain* | Wind** | Luminosity | Snow |
|---|---|---|---|---|---|---|---|
| 1777415256 | 15° C | 54% | 1004.6 hPa | 0 mm | - | 301 W/m² | - |
| 1777414951 | 14.44° C | 55% | 1004.8 hPa | 0 mm | - | 278 W/m² | - |
| 1777414650 | 14.44° C | 57% | 1004.8 hPa | 0 mm | - | 304 W/m² | - |
| 1777414345 | 14.44° C | 51% | 1004.7 hPa | 0 mm | - | 321 W/m² | - |
| 1777414040 | 15° C | 58% | 1004.8 hPa | 0 mm | - | 345 W/m² | - |
| 1777413735 | 15° C | 56% | 1004.4 hPa | 0 mm | - | 365 W/m² | - |
| 1777413431 | 14.44° C | 53% | 1004.4 hPa | 0 mm | - | 396 W/m² | - |
| 1777413128 | 14.44° C | 55% | 1004.5 hPa | 0 mm | - | 396 W/m² | - |
| 1777412822 | 15° C | 53% | 1004.5 hPa | 0 mm | - | 343 W/m² | - |
| 1777412522 | 15° C | 53% | 1004.7 hPa | 0 mm | - | 353 W/m² | - |
| 1777412219 | 15° C | 53% | 1004.5 hPa | 0 mm | - | 429 W/m² | - |
| 1777411915 | 15° C | 54% | 1005.1 hPa | 0 mm | - | 463 W/m² | - |
| 1777411614 | 15° C | 56% | 1004.8 hPa | 0 mm | - | 478 W/m² | - |
| 1777411310 | 14.44° C | 55% | 1004.9 hPa | 0 mm | - | 327 W/m² | - |
| 1777411009 | 14.44° C | 59% | 1004.8 hPa | 0 mm | - | 510 W/m² | - |
| 1777410703 | 14.44° C | 53% | 1004.9 hPa | 0 mm | - | 499 W/m² | - |
| 1777410399 | 14.44° C | 55% | 1004.8 hPa | 0 mm | - | 505 W/m² | - |
| 1777410097 | 14.44° C | 57% | 1004.7 hPa | 0 mm | - | 529 W/m² | - |
| 1777409792 | 14.44° C | 55% | 1005 hPa | 0 mm | - | 524 W/m² | - |
| 1777409488 | 13.89° C | 62% | 1004.9 hPa | 0 mm | - | 493 W/m² | - |
| 1777409184 | 14.44° C | 59% | 1004.8 hPa | 0 mm | - | 419 W/m² | - |
| 1777408881 | 13.89° C | 60% | 1004.9 hPa | 0 mm | - | 484 W/m² | - |
| 1777408576 | 13.89° C | 56% | 1004.9 hPa | 0 mm | - | 542 W/m² | - |
| 1777408272 | 13.89° C | 57% | 1004.7 hPa | 0 mm | - | 611 W/m² | - |
| 1777407966 | 14.44° C | 57% | 1004.7 hPa | 0 mm | - | 574 W/m² | - |
* Rain latest hour (hover to see other rain measurements)
** Current wind speed in m/s (hover to see current wind gust speed)